Location: Hamburg
(53.5554°N, 9.9941°E)
Time: 17:13:21
(UTC+01:00)

ISS - Pass Details

Date: 11 November 2017
Orbit: 402 x 407 km, 51.6° (Epoch: 20 November)

Event Time Altitude Azimuth Distance (km) Brightness Sun altitude
Exits shadow 06:42:44 10° 267° (W) 1,449 -1.6 -8.4°
Maximum altitude 06:45:35 29° 206° (SSW) 776 -2.5 -8.0°
Drops below altitude 10° 06:48:27 10° 144° (SE) 1,453 -0.1 -7.6°
Sets 06:50:41 0° 133° (SE) 2,310 1.5 -7.3°
